GW4987 Weather Reports


Display with metric or nautical units.
time (UTC)temp
F
wind
direction
speed
MPH
gust
MPH
rain 1hr
in
rain 24hr
in
rain mn
in
humidity
%
barometer
mb
20260906200503 82 211 13.0 14.0 0.00 0.00 0.00 39 1020.9
20260906200004 81 271 11.0 13.0 0.00 0.00 0.00 38 1021.1
20260906195003 81 214 10.0 17.0 0.00 0.00 0.00 39 1021.4
20260906194504 81 238 13.0 14.0 0.00 0.00 0.00 39 1021.1
20260906191003 81 202 11.0 11.0 0.00 0.00 0.00 39 1021.4
20260906190504 82 260 8.0 13.0 0.00 0.00 0.00 39 1021.5
20260906190004 79 282 7.0 10.0 0.00 0.00 0.00 42 1021.4
20260906185503 79 299 7.0 15.0 0.00 0.00 0.00 42 1021.3
20260906185003 80 287 3.0 4.0 0.00 0.00 0.00 42 1021.5
20260906184504 81 302 7.0 9.0 0.00 0.00 0.00 40 1021.7
20260906184004 79 297 6.0 11.0 0.00 0.00 0.00 42 1021.8
20260906183504 79 249 4.0 6.0 0.00 0.00 0.00 41 1021.8
20260906183004 80 160 3.0 5.0 0.00 0.00 0.00 40 1021.9
20260906182503 81 95 4.0 6.0 0.00 0.00 0.00 40 1022.1
20260906182004 80 45 3.0 5.0 0.00 0.00 0.00 40 1021.8
20260906181504 79 320 2.0 6.0 0.00 0.00 0.00 41 1022.0
20260906181003 81 28 6.0 6.0 0.00 0.00 0.00 40 1022.0
20260906180504 82 101 3.0 5.0 0.00 0.00 0.00 39 1021.9
20260906180004 80 51 2.0 6.0 0.00 0.00 0.00 40 1022.1
20260906175504 78 346 3.0 6.0 0.00 0.00 0.00 42 1022.1
20260906175004 80 43 5.0 8.0 0.00 0.00 0.00 40 1022.2
20260906173005 79 113 4.0 5.0 0.00 0.00 0.00 42 1022.3
20260906172504 79 240 3.0 4.0 0.00 0.00 0.00 42 1022.3
20260906172004 77 125 6.0 6.0 0.00 0.00 0.00 43 1022.3
20260906171503 78 335 4.0 10.0 0.00 0.00 0.00 43 1022.3
20260906171003 77 332 4.0 7.0 0.00 0.00 0.00 43 1022.4
20260906170504 76 336 3.0 8.0 0.00 0.00 0.00 44 1022.3
20260906170004 77 67 4.0 6.0 0.00 0.00 0.00 42 1022.6
20260906165504 78 22 5.0 5.0 0.00 0.00 0.00 42 1022.5
20260906165004 76 33 3.0 5.0 0.00 0.00 0.00 44 1022.3
20260906164504 75 342 5.0 7.0 0.00 0.00 0.00 44 1022.4
20260906162504 77 14 4.0 4.0 0.00 0.00 0.00 43 1022.3
20260906162004 77 79 5.0 6.0 0.00 0.00 0.00 43 1022.4
20260906161504 75 336 2.0 8.0 0.00 0.00 0.00 45 1022.3
20260906161003 76 17 5.0 5.0 0.00 0.00 0.00 44 1022.3
20260906160503 74 287 3.0 8.0 0.00 0.00 0.00 45 1022.3
20260906160004 73 8 6.0 10.0 0.00 0.00 0.00 47 1022.3
20260906155503 74 342 3.0 5.0 0.00 0.00 0.00 45 1022.4
20260906155003 74 15 5.0 5.0 0.00 0.00 0.00 45 1022.5
20260906154503 74 18 3.0 6.0 0.00 0.00 0.00 45 1022.5
20260906154003 75 14 2.0 6.0 0.00 0.00 0.00 45 1022.5
20260906153503 74 329 3.0 4.0 0.00 0.00 0.00 46 1022.4
20260906153004 73 302 10.0 10.0 0.00 0.00 0.00 46 1022.5
20260906152503 72 349 5.0 8.0 0.00 0.00 0.00 48 1022.6
20260906152003 73 20 2.0 7.0 0.00 0.00 0.00 48 1022.4
20260906151504 73 357 6.0 7.0 0.00 0.00 0.00 47 1022.5
20260906151003 74 352 2.0 8.0 0.00 0.00 0.00 46 1022.4
20260906150503 74 18 4.0 6.0 0.00 0.00 0.00 46 1022.5
20260906150003 73 26 4.0 5.0 0.00 0.00 0.00 48 1022.4
20260906145504 73 9 2.0 6.0 0.00 0.00 0.00 47 1022.3
20260906145004 72 59 2.0 6.0 0.00 0.00 0.00 47 1022.3
20260906144504 72 65 4.0 7.0 0.00 0.00 0.00 48 1022.3
20260906142503 70 34 2.0 3.0 0.00 0.00 0.00 50 1022.2
20260906142003 71 80 2.0 3.0 0.00 0.00 0.00 50 1022.3
20260906140004 67 193 0.0 2.0 0.00 0.00 0.00 55 1021.9
20260906135503 67 265 2.0 2.0 0.00 0.00 0.00 57 1022.3
20260906135004 67 211 0.0 0.0 0.00 0.00 0.00 55 1022.1
20260906134504 66 345 0.0 2.0 0.00 0.00 0.00 55 1022.0
20260906134003 66 250 2.0 3.0 0.00 0.00 0.00 56 1021.8
20260906133503 66 266 2.0 3.0 0.00 0.00 0.00 55 1021.7
20260906133004 66 337 0.0 2.0 0.00 0.00 0.00 54 1021.8
20260906132504 66 281 3.0 3.0 0.00 0.00 0.00 54 1021.7
20260906132004 66 284 2.0 3.0 0.00 0.00 0.00 55 1021.7
20260906131503 66 267 2.0 3.0 0.00 0.00 0.00 55 1021.7
20260906131003 66 253 3.0 3.0 0.00 0.00 0.00 55 1021.4
20260906130503 66 247 3.0 3.0 0.00 0.00 0.00 55 1021.5
20260906130004 66 255 2.0 3.0 0.00 0.00 0.00 55 1021.4
20260906125504 66 254 3.0 3.0 0.00 0.00 0.00 55 1021.5
20260906125004 66 269 2.0 4.0 0.00 0.00 0.00 55 1021.5
20260906124504 66 267 2.0 3.0 0.00 0.00 0.00 55 1021.7
20260906124004 66 281 2.0 3.0 0.00 0.00 0.00 56 1021.4
20260906123504 66 254 2.0 3.0 0.00 0.00 0.00 55 1021.5
20260906123003 66 194 0.0 2.0 0.00 0.00 0.00 55 1021.5
20260906122503 67 305 2.0 3.0 0.00 0.00 0.00 54 1021.4
20260906122004 67 264 4.0 5.0 0.00 0.00 0.00 55 1021.4
20260906121503 66 306 0.0 2.0 0.00 0.00 0.00 55 1021.5
20260906121003 66 278 2.0 2.0 0.00 0.00 0.00 55 1021.5
20260906120504 66 251 2.0 3.0 0.00 0.00 0.00 55 1021.5
20260906120004 66 260 2.0 3.0 0.00 0.00 0.00 55 1021.3
20260906115503 66 274 3.0 3.0 0.00 0.00 0.00 55 1021.6
20260906115004 66 188 0.0 2.0 0.00 0.00 0.00 55 1021.6
20260906114504 66 262 2.0 3.0 0.00 0.00 0.00 55 1021.6
20260906114003 66 184 0.0 2.0 0.00 0.00 0.00 55 1021.4
20260906113504 66 233 3.0 3.0 0.00 0.00 0.00 55 1021.5
20260906111504 66 261 5.0 6.0 0.00 0.00 0.00 52 1021.3
20260906111004 66 271 5.0 5.0 0.00 0.00 0.00 52 1021.3
20260906110504 66 265 4.0 5.0 0.00 0.00 0.00 52 1021.3
20260906110004 66 241 4.0 5.0 0.00 0.00 0.00 53 1021.5
20260906105504 66 261 4.0 4.0 0.00 0.00 0.00 54 1021.3
20260906105004 65 274 4.0 5.0 0.00 0.00 0.00 56 1021.3
20260906104503 64 248 3.0 4.0 0.00 0.00 0.00 58 1021.3
20260906104003 65 258 3.0 4.0 0.00 0.00 0.00 58 1021.3
20260906103504 65 245 3.0 6.0 0.00 0.00 0.00 57 1021.1
20260906103003 66 259 2.0 4.0 0.00 0.00 0.00 55 1021.4
20260906102504 66 259 4.0 5.0 0.00 0.00 0.00 55 1021.5
20260906102003 66 212 0.0 2.0 0.00 0.00 0.00 55 1021.6
20260906101503 66 250 5.0 5.0 0.00 0.00 0.00 55 1021.5
20260906101004 66 256 3.0 5.0 0.00 0.00 0.00 56 1021.4
20260906100504 66 265 4.0 5.0 0.00 0.00 0.00 56 1021.4
20260906100004 65 260 3.0 3.0 0.00 0.00 0.00 57 1021.4
20260906095504 65 245 4.0 4.0 0.00 0.00 0.00 57 1021.4
20260906095004 65 264 5.0 5.0 0.00 0.00 0.00 57 1021.4
20260906094504 65 211 3.0 5.0 0.00 0.00 0.00 57 1021.5
20260906094003 65 261 3.0 4.0 0.00 0.00 0.00 56 1021.5
20260906093503 65 272 2.0 3.0 0.00 0.00 0.00 56 1021.3
20260906093004 65 232 3.0 3.0 0.00 0.00 0.00 55 1021.4
20260906092503 66 221 0.0 2.0 0.00 0.00 0.00 55 1021.5
20260906092003 66 267 4.0 5.0 0.00 0.00 0.00 54 1021.6
20260906091504 67 259 4.0 5.0 0.00 0.00 0.00 54 1021.3
20260906082504 66 264 4.0 5.0 0.00 0.00 0.00 58 1021.6
20260906082004 66 253 4.0 5.0 0.00 0.00 0.00 57 1021.6
20260906081504 66 262 5.0 6.0 0.00 0.00 0.00 57 1021.7
20260906081004 66 242 5.0 5.0 0.00 0.00 0.00 56 1021.6
20260906080503 67 265 5.0 6.0 0.00 0.00 0.00 56 1021.7
20260906080004 68 262 4.0 5.0 0.00 0.00 0.00 54 1021.8
20260906074004 67 261 4.0 5.0 0.00 0.00 0.00 55 1021.9
20260906073504 67 255 4.0 4.0 0.00 0.00 0.00 56 1022.0
20260906073004 66 256 4.0 4.0 0.00 0.00 0.00 57 1021.9
20260906065504 66 291 3.0 3.0 0.00 0.00 0.00 58 1022.3
20260906065004 66 245 3.0 4.0 0.00 0.00 0.00 57 1022.2
20260906064504 66 279 2.0 2.0 0.00 0.00 0.00 57 1022.2
20260906064003 66 317 0.0 2.0 0.00 0.00 0.00 58 1022.1
20260906063503 66 268 4.0 4.0 0.00 0.00 0.00 58 1022.1
20260906063004 67 261 3.0 4.0 0.00 0.00 0.00 56 1022.2
20260906062504 67 246 0.0 0.0 0.00 0.00 0.00 55 1022.2
20260906062004 67 267 2.0 3.0 0.00 0.00 0.00 55 1022.2
20260906061503 67 271 4.0 4.0 0.00 0.00 0.00 55 1022.1
20260906061003 67 269 3.0 3.0 0.00 0.00 0.00 56 1022.0
20260906060503 67 308 3.0 4.0 0.00 0.00 0.00 56 1022.3
20260906060004 66 268 4.0 5.0 0.00 0.00 0.00 58 1022.3
20260906055503 66 188 0.0 2.0 0.00 0.00 0.00 58 1022.1
20260906053504 68 186 0.0 0.0 0.00 0.00 0.00 56 1022.3
20260906053003 68 103 2.0 2.0 0.00 0.00 0.00 55 1022.3
20260906052503 68 81 0.0 3.0 0.00 0.00 0.00 56 1022.3
20260906052003 68 121 3.0 4.0 0.00 0.00 0.00 56 1022.4
20260906051504 68 128 2.0 2.0 0.00 0.00 0.00 55 1022.3
20260906051004 68 205 0.0 2.0 0.00 0.00 0.00 54 1022.4
20260906050504 69 199 2.0 4.0 0.00 0.00 0.00 53 1022.2
20260906050004 69 215 3.0 5.0 0.00 0.00 0.00 53 1022.2
20260906045503 69 241 4.0 5.0 0.00 0.00 0.00 53 1022.3
20260906045003 69 223 3.0 4.0 0.00 0.00 0.00 52 1022.3
20260906044504 69 266 3.0 4.0 0.00 0.00 0.00 53 1022.3
20260906044004 69 265 3.0 4.0 0.00 0.00 0.00 53 1022.2
20260906043504 69 264 4.0 4.0 0.00 0.00 0.00 54 1022.2
20260906043004 69 252 4.0 5.0 0.00 0.00 0.00 54 1022.2
20260906042503 69 267 5.0 6.0 0.00 0.00 0.00 55 1022.3
20260906042003 69 235 4.0 6.0 0.00 0.00 0.00 55 1022.2
20260906041504 69 260 3.0 3.0 0.00 0.00 0.00 55 1022.3
20260906041003 70 252 2.0 3.0 0.00 0.00 0.00 53 1022.2
20260906040503 70 263 3.0 3.0 0.00 0.00 0.00 53 1022.1
20260906040004 70 283 2.0 3.0 0.00 0.00 0.00 53 1022.2
20260906034004 69 272 5.0 5.0 0.00 0.00 0.00 54 1021.9
20260906033504 70 260 3.0 4.0 0.00 0.00 0.00 53 1022.1
20260906033004 70 227 2.0 3.0 0.00 0.00 0.00 52 1021.9
20260906032503 70 256 2.0 3.0 0.00 0.00 0.00 51 1021.9
20260906032003 70 263 4.0 4.0 0.00 0.00 0.00 52 1022.0
20260906031503 70 269 3.0 4.0 0.00 0.00 0.00 52 1021.9
20260906025503 71 269 2.0 2.0 0.00 0.00 0.00 52 1021.8
20260906025003 71 246 0.0 0.0 0.00 0.00 0.00 53 1021.7
20260906024504 71 309 0.0 0.0 0.00 0.00 0.00 52 1021.7
20260906024004 71 0 0.0 0.0 0.00 0.00 0.00 52 1021.7
20260906023504 71 309 0.0 0.0 0.00 0.00 0.00 52 1021.6
20260906023004 71 147 0.0 2.0 0.00 0.00 0.00 51 1021.7
20260906022503 72 207 4.0 5.0 0.00 0.00 0.00 51 1021.7
20260906022003 72 197 4.0 6.0 0.00 0.00 0.00 50 1021.8
20260906021504 72 199 3.0 3.0 0.00 0.00 0.00 50 1021.7
20260906015503 73 260 3.0 5.0 0.00 0.00 0.00 49 1021.7
20260906015004 73 199 6.0 8.0 0.00 0.00 0.00 49 1021.9
20260906014503 73 268 4.0 5.0 0.00 0.00 0.00 49 1021.8
20260906014003 73 259 5.0 5.0 0.00 0.00 0.00 49 1021.8
20260906013503 74 197 3.0 4.0 0.00 0.00 0.00 49 1021.8
20260906013003 74 262 5.0 9.0 0.00 0.00 0.00 48 1021.9
20260906012503 74 256 4.0 7.0 0.00 0.00 0.00 48 1021.8
20260906012003 74 248 5.0 5.0 0.00 0.00 0.00 48 1021.9
20260906011504 74 225 5.0 10.0 0.00 0.00 0.00 48 1021.7
20260906005503 75 248 3.0 4.0 0.00 0.00 0.00 47 1021.9
20260906005003 75 260 4.0 8.0 0.00 0.00 0.00 47 1022.0
20260906004504 76 223 7.0 10.0 0.00 0.00 0.00 47 1022.2
20260906004003 76 190 5.0 12.0 0.00 0.00 0.00 47 1021.9
20260906003503 76 238 7.0 14.0 0.00 0.00 0.00 47 1022.0
20260906003004 75 158 6.0 10.0 0.00 0.00 0.00 49 1022.1
20260906002503 75 180 6.0 9.0 0.00 0.00 0.00 49 1022.1
20260906002003 75 257 10.0 11.0 0.00 0.00 0.00 49 1022.0
20260906001504 75 219 3.0 14.0 0.00 0.00 0.00 49 1022.0
20260906001004 76 201 8.0 15.0 0.00 0.00 0.00 48 1022.0
20260906000504 77 197 7.0 15.0 0.00 0.00 0.00 47 1021.9
20260906000006 77 206 8.0 18.0 0.00 0.00 0.00 47 1022.0
20260905235503 78 202 15.0 18.0 0.00 0.00 0.00 46 1022.1
20260905235003 77 218 7.0 15.0 0.00 0.00 0.00 47 1022.0
20260905234504 75 226 11.0 20.0 0.00 0.00 0.00 49 1021.9
20260905234004 75 218 7.0 11.0 0.00 0.00 0.00 50 1021.9
20260905233504 76 207 15.0 20.0 0.00 0.00 0.00 49 1021.9
20260905233004 76 206 7.0 15.0 0.00 0.00 0.00 48 1021.9
20260905232503 76 215 8.0 11.0 0.00 0.00 0.00 47 1022.2
20260905232003 76 240 8.0 13.0 0.00 0.00 0.00 47 1022.1
20260905231504 76 227 10.0 15.0 0.00 0.00 0.00 47 1022.0
20260905231004 76 192 13.0 17.0 0.00 0.00 0.00 46 1022.0
20260905230504 76 253 7.0 14.0 0.00 0.00 0.00 45 1021.9
20260905230004 77 174 4.0 7.0 0.00 0.00 0.00 45 1022.0
20260905225504 76 190 11.0 11.0 0.00 0.00 0.00 46 1022.2
20260905225004 76 150 7.0 14.0 0.00 0.00 0.00 46 1022.0
20260905224504 76 196 2.0 13.0 0.00 0.00 0.00 47 1022.3
20260905224004 76 195 4.0 12.0 0.00 0.00 0.00 46 1022.3
20260905223504 76 169 5.0 6.0 0.00 0.00 0.00 48 1022.2
20260905223004 75 57 2.0 13.0 0.00 0.00 0.00 50 1022.0
20260905222504 75 138 9.0 14.0 0.00 0.00 0.00 51 1022.3
20260905222004 76 130 6.0 17.0 0.00 0.00 0.00 51 1022.2
20260905221503 76 163 3.0 10.0 0.00 0.00 0.00 50 1022.2
20260905221003 75 206 5.0 13.0 0.00 0.00 0.00 51 1022.3
20260905220504 76 158 9.0 19.0 0.00 0.00 0.00 50 1022.4
20260905220003 76 174 11.0 15.0 0.00 0.00 0.00 48 1022.3
20260905215504 77 184 16.0 17.0 0.00 0.00 0.00 47 1022.3
20260905215003 78 142 8.0 15.0 0.00 0.00 0.00 45 1022.1
20260905213003 79 218 7.0 15.0 0.00 0.00 0.00 43 1022.1
20260905212503 79 183 9.0 18.0 0.00 0.00 0.00 43 1022.3
20260905212004 80 149 12.0 18.0 0.00 0.00 0.00 42 1022.3
20260905211503 80 169 8.0 16.0 0.00 0.00 0.00 42 1022.3
20260905211003 82 200 4.0 17.0 0.00 0.00 0.00 40 1022.3
20260905210503 81 163 3.0 12.0 0.00 0.00 0.00 41 1022.3
20260905210003 80 157 3.0 20.0 0.00 0.00 0.00 42 1022.3
20260905205503 80 141 7.0 15.0 0.00 0.00 0.00 42 1022.4
20260905205004 79 198 12.0 15.0 0.00 0.00 0.00 42 1022.3
20260905204503 78 247 5.0 14.0 0.00 0.00 0.00 43 1022.3
20260905204003 79 216 15.0 20.0 0.00 0.00 0.00 42 1022.5
20260905203503 79 197 4.0 12.0 0.00 0.00 0.00 41 1022.5
20260905203003 79 140 10.0 20.0 0.00 0.00 0.00 41 1022.5
20260905202503 80 119 5.0 14.0 0.00 0.00 0.00 39 1022.4
20260905202003 80 136 19.0 22.0 0.00 0.00 0.00 39 1022.4
20260905201504 79 143 5.0 16.0 0.00 0.00 0.00 40 1022.5
20260905201004 80 221 13.0 18.0 0.00 0.00 0.00 38 1022.6